RH
89 94 90 85 86 82 77 73 72 66 63 63 64 62 59 55 49 46 32 24 11 14 8 9 18 20 26 28 31 34 48 54 32 26 25 25 28 30 34 33 33 32 34 35 40
90 94 99 97 95 91 89 81 75 76 71 71 72 68 65 59 52 34 22 17 16 16 9 12 16 21 24 29 31 41 45 30 23 21 25 28 26 30 32 35 37 39 38 38 38
84 94 99 99 96 96 87 92 84 75 79 80 80 78 72 62 46 19 15 16 21 15 14 21 23 24 25 27 31 38 39 33 22 24 25 28 28 32 36 39 32 39 39 40 40
65 72 97 100 100 99 91 99 89 78 82 83 81 80 76 61 57 32 27 26 25 13 19 23 23 24 30 31 27 33 29 27 24 27 28 29 31 36 36 32 29 32 39 40 39
32 52 95 100 99 85 86 98 92 87 84 90 85 86 78 54 51 40 32 33 22 15 22 24 25 25 25 25 21 28 25 26 25 28 29 30 38 40 42 37 38 38 38 39 38
33 37 36 52 62 80 97 98 97 93 76 95 96 96 64 60 44 38 32 28 20 14 25 27 28 29 32 32 29 31 31 31 28 27 32 37 38 38 35 36 42 42 43 43 36
30 28 32 56 79 96 88 82 99 94 85 96 100 94 57 53 47 38 30 23 22 24 29 32 34 35 37 39 39 35 46 50 46 43 41 37 45 52 38 39 43 45 46 45 38
38 35 32 27 37 79 77 77 76 79 74 96 100 67 51 48 35 28 28 29 35 34 37 42 40 45 42 41 54 42 46 67 54 42 51 35 58 40 46 45 47 47 47 46 42
38 34 32 31 29 25 36 47 51 57 72 95 88 50 47 32 31 28 25 33 38 36 45 49 46 47 47 61 80 76 90 77 50 40 59 43 42 46 51 49 52 50 49 44 47
39 33 30 29 28 21 20 44 54 59 80 79 61 61 50 39 32 28 37 36 41 52 49 49 45 59 56 76 86 88 78 67 62 38 56 64 70 55 52 56 54 53 52 57 53
40 32 33 29 28 49 68 71 84 78 66 54 54 52 57 58 51 36 34 30 30 43 71 54 58 68 54 58 60 60 46 58 55 35 40 54 57 53 45 42 64 61 66 30 20
43 34 32 62 86 84 81 98 96 83 88 74 73 78 68 38 38 31 31 24 41 45 44 58 72 51 45 49 62 56 37 38 29 35 35 41 45 59 49 59 66 58 33 26 22
46 38 37 89 90 84 78 81 99 97 92 80 50 44 34 32 20 25 27 24 27 29 33 46 36 33 23 27 35 35 37 35 33 39 37 46 67 87 61 63 43 38 35 34 35
50 44 46 80 81 69 86 85 87 89 86 76 37 25 20 19 25 27 42 26 28 31 24 27 24 25 26 27 30 30 36 37 39 43 60 46 84 69 70 73 38 42 38 39 38
52 49 44 80 73 80 74 88 95 95 90 36 23 27 20 34 70 54 37 31 40 36 30 43 26 28 30 28 23 30 36 38 40 60 70 71 86 66 73 70 53 47 43 36 55
60 55 54 78 80 76 67 75 86 85 96 58 45 46 69 68 66 57 39 36 34 39 37 38 26 27 28 30 30 34 41 48 55 78 96 81 83 78 82 56 49 51 50 42 67
68 62 70 77 79 78 67 86 87 92 60 82 76 68 61 65 68 62 74 70 69 78 85 56 33 32 30 39 38 43 73 86 76 98 79 82 74 80 58 50 70 74 52 51 76
72 66 79 85 92 85 76 76 95 58 78 63 61 60 66 49 57 46 48 74 64 65 88 85 75 38 33 45 48 36 67 80 45 80 60 61 76 63 41 51 46 51 50 65 79
72 68 70 83 85 82 77 91 85 77 69 65 58 78 76 57 60 69 68 66 59 82 85 96 82 36 36 33 30 48 70 57 65 79 71 55 48 42 41 26 46 56 51 72 85
74 74 79 80 80 88 90 90 84 73 77 72 78 87 71 75 73 89 88 69 61 74 66 96 95 45 42 37 38 39 46 73 86 75 53 50 43 58 31 36 59 78 70 81 88
78 84 94 81 76 86 85 77 75 84 75 85 87 84 86 92 98 95 94 87 70 84 75 77 82 64 46 52 51 47 77 57 64 81 80 77 50 76 51 64 78 88 68 84 92
83 98 92 87 80 99 89 76 71 72 75 89 88 87 96 99 91 98 98 96 93 90 81 62 95 100 73 50 45 46 41 53 78 64 89 89 53 81 70 82 92 75 76 84 94
80 85 87 85 96 94 75 74 70 80 88 99 99 99 100 96 95 99 91 89 95 98 94 74 91 93 78 80 53 44 44 59 74 79 70 67 44 66 74 84 64 76 80 89 95
82 94 75 87 92 84 91 74 87 97 94 98 97 97 99 94 93 94 87 91 92 96 99 96 97 93 95 92 80 69 71 54 53 70 72 75 55 44 51 75 76 70 79 91 96
86 87 69 82 88 93 98 82 69 94 99 95 99 100 99 99 92 95 91 95 96 92 98 97 98 96 84 94 97 96 89 73 66 52 52 62 64 61 68 73 84 81 81 91 94
90 86 79 90 79 93 93 93 73 91 98 98 96 94 96 97 93 98 99 98 97 99 99 98 92 97 93 88 93 86 77 65 64 52 53 77 62 59 70 75 55 68 87 94 96
90 72 62 89 97 92 95 85 85 87 93 84 97 98 94 91 99 100 99 99 99 98 97 97 97 96 94 70 75 83 69 69 80 82 59 52 40 64 58 51 65 67 90 98 97
Wind_Speed
21 21 20 20 20 20 21 20 19 17 17 17 18 19 21 22 21 20 4 2 5 13 12 7 4 4 2 3 4 4 2 3 5 2 3 1 1 1 3 6 4 3 5 6 21
20 22 20 19 20 19 21 20 20 19 18 18 20 20 22 23 24 8 0 2 9 12 9 6 2 0 3 3 4 4 3 7 3 1 2 2 2 4 2 4 5 5 11 13 14
22 19 21 21 20 20 21 20 21 20 19 20 21 22 22 22 17 1 2 5 10 9 5 3 3 4 3 5 6 5 5 4 3 3 2 1 2 5 5 5 10 14 17 14 12
21 19 21 22 21 20 21 20 21 20 20 21 22 24 22 16 4 4 7 9 9 6 3 4 4 2 3 4 6 3 9 6 4 5 4 3 3 4 13 6 7 8 17 14 10
20 19 20 18 19 22 24 21 22 19 21 20 21 22 21 9 10 7 7 9 8 5 4 3 2 1 3 3 5 4 3 7 3 7 8 7 8 7 9 10 10 10 11 10 8
20 19 20 23 25 22 18 22 20 20 20 20 21 21 14 5 8 6 8 9 6 5 3 3 2 4 6 3 1 5 6 11 9 10 10 6 4 6 6 12 15 13 11 7 9
20 20 20 19 18 19 19 21 20 21 23 21 21 18 14 15 8 8 10 4 3 4 5 5 6 5 4 5 6 5 6 7 6 9 5 3 5 9 13 10 16 13 10 8 9
21 21 20 19 20 22 21 22 26 27 22 19 20 14 8 9 7 7 6 6 7 7 6 11 9 6 3 6 6 3 2 4 4 3 1 4 6 3 7 16 14 12 10 10 10
21 22 22 20 19 20 20 21 20 18 17 18 13 6 8 4 6 7 5 11 9 8 6 5 3 0 1 2 3 3 4 5 7 2 3 3 6 2 9 13 12 12 11 10 12
21 22 20 19 17 16 15 16 13 12 12 8 6 5 4 4 4 7 10 6 2 1 3 2 2 2 3 3 3 3 4 5 5 2 3 3 13 6 10 11 14 12 8 8 13
20 22 19 15 13 12 11 5 3 2 4 6 4 9 11 7 7 4 3 6 3 2 3 2 2 5 8 8 3 2 4 7 4 4 4 7 12 10 12 13 11 9 0 8 17
19 20 17 12 9 8 8 3 3 3 8 14 14 11 11 3 1 2 3 3 2 3 2 1 7 8 5 2 5 4 5 7 6 1 1 5 12 7 7 3 7 9 4 14 22
17 19 15 9 6 7 6 5 5 4 3 6 2 2 2 2 3 5 4 3 5 3 5 6 3 4 4 3 4 3 5 4 5 6 5 4 7 4 2 9 12 5 10 14 23
16 16 11 2 2 6 5 6 4 2 2 4 2 1 1 1 3 6 3 3 2 3 3 5 2 3 3 4 5 3 1 2 4 4 2 4 5 3 3 2 4 4 14 20 27
15 15 12 2 3 4 6 6 3 1 4 2 2 1 1 2 6 1 2 2 3 2 3 5 3 4 4 3 2 5 0 2 1 1 4 2 2 3 4 3 4 6 17 24 28
16 14 11 3 1 2 2 5 2 3 5 1 2 1 3 0 2 3 2 3 3 2 2 7 1 0 2 1 0 3 2 1 1 2 1 3 3 2 2 4 5 5 18 25 29
15 13 8 2 2 4 3 2 3 4 3 2 1 1 1 3 3 4 1 2 1 3 3 4 2 1 1 0 1 3 4 3 4 0 4 2 1 5 1 2 4 6 22 26 28
13 12 6 5 3 6 2 3 3 4 2 2 1 3 4 4 2 3 2 2 3 3 1 1 4 2 1 1 3 1 4 3 3 2 4 1 5 4 2 4 5 10 20 24 28
11 11 6 2 3 2 2 2 7 2 3 5 7 1 1 1 1 5 1 1 3 2 1 1 4 2 3 1 2 1 1 1 1 2 2 2 3 1 3 5 9 17 24 28 31
9 10 7 2 5 4 3 4 3 3 4 4 2 2 3 4 5 4 3 3 2 5 2 1 4 1 2 1 2 2 3 1 1 2 4 4 3 3 4 9 9 10 21 28 30
6 4 4 1 6 3 3 4 2 5 7 3 2 2 2 2 1 3 3 1 3 2 2 3 2 4 1 4 4 2 0 1 0 2 3 3 4 5 6 5 8 8 21 25 28
3 0 2 4 2 1 3 3 1 3 3 2 1 1 2 2 3 3 3 1 1 1 3 1 3 4 5 1 1 1 1 1 2 3 1 2 5 2 5 5 3 16 20 24 25
4 3 2 6 3 2 3 2 4 2 2 2 1 1 1 3 3 3 2 3 3 3 4 1 2 3 5 4 2 3 3 4 2 2 5 4 5 1 4 5 4 13 20 23 25
6 1 3 4 3 5 3 3 1 3 2 3 1 2 1 3 4 3 4 3 6 4 7 3 2 4 3 1 2 1 2 4 4 2 2 5 4 3 7 5 8 12 17 19 24
10 4 5 2 2 2 1 1 5 2 2 3 2 3 1 3 3 4 2 2 5 3 4 3 3 3 8 10 8 6 7 6 7 5 4 4 4 6 6 3 8 13 17 21 24
12 6 7 3 11 5 2 3 4 2 4 3 2 1 3 3 3 4 3 3 3 2 3 3 3 2 4 8 9 12 14 10 9 4 7 2 9 5 2 1 6 13 16 20 23
16 14 12 8 4 4 4 4 5 5 2 2 3 1 5 5 6 9 8 10 4 2 4 4 2 1 3 5 3 6 8 11 4 2 6 5 6 4 1 0 6 10 15 17 21
Wind_Direction
324 321 323 324 326 331 334 336 335 334 336 338 340 340 339 333 331 327 307 276 323 332 325 313 282 207 221 212 197 175 80 237 254 233 305 305 100 29 106 140 161 175 161 187 177
318 315 309 314 316 320 323 326 328 327 330 331 333 334 336 330 328 323 66 319 331 332 324 318 260 144 220 223 194 129 157 222 231 178 211 284 212 192 174 164 204 122 146 162 180
309 307 310 306 303 308 309 315 319 320 324 325 326 328 330 328 324 224 331 329 328 323 328 350 331 313 240 201 200 187 213 220 234 203 188 231 259 203 173 230 210 194 179 184 197
304 300 297 302 297 308 310 307 309 311 316 320 322 325 325 324 315 284 317 323 322 317 300 335 303 251 236 221 218 219 239 242 253 221 196 205 234 203 207 238 242 214 206 195 208
304 295 286 293 291 302 300 296 298 301 311 314 318 322 322 299 276 298 317 321 314 294 265 306 293 297 257 300 306 231 285 288 253 245 244 230 231 231 238 244 220 200 198 219 236
313 307 297 290 291 290 304 299 285 296 311 310 317 316 310 266 283 302 319 324 309 290 255 259 266 304 274 261 275 322 292 283 287 269 244 215 254 194 264 234 219 215 216 229 240
322 315 307 298 292 289 284 295 291 297 306 303 313 311 292 284 275 297 313 317 325 298 259 278 297 300 317 301 332 294 305 301 255 257 222 164 270 233 246 220 194 208 227 243 253
327 321 314 304 291 283 281 280 285 292 297 293 303 296 266 283 282 286 302 300 282 273 287 303 293 282 229 304 319 275 285 332 299 116 241 173 273 258 199 178 191 215 236 241 241
331 325 320 311 304 294 288 285 290 290 282 292 295 258 276 296 277 287 281 299 278 262 291 303 344 73 343 66 351 319 281 269 304 154 140 191 275 248 185 194 209 227 234 240 260
333 330 325 319 312 302 303 301 292 285 287 270 231 289 258 304 299 297 292 303 289 128 233 232 33 51 24 89 242 234 267 259 243 308 222 236 263 253 231 230 231 232 237 269 291
336 335 330 329 328 321 327 345 349 357 254 235 290 275 305 307 288 264 293 315 267 238 206 194 48 228 229 204 212 235 253 255 259 258 236 234 260 266 252 245 225 211 237 323 314
337 339 334 345 352 8 360 35 60 325 308 293 286 275 266 290 207 217 293 321 179 239 154 14 234 228 223 185 203 256 276 280 286 192 230 273 274 279 257 202 178 130 36 339 325
338 342 344 358 9 21 12 6 340 330 267 291 319 179 250 261 206 229 227 216 219 256 207 200 248 143 191 199 209 239 220 253 261 323 253 322 286 322 344 104 117 104 2 334 335
336 341 346 345 293 340 349 349 339 6 320 274 231 280 284 266 266 242 269 265 212 260 282 238 242 208 222 243 149 266 160 312 317 8 277 45 284 258 210 299 139 29 340 337 337
331 338 344 306 305 3 343 347 2 46 2 332 280 297 250 210 310 358 199 276 235 248 49 266 201 216 237 231 162 229 246 254 238 237 5 213 127 265 111 286 240 327 337 336 339
325 338 344 342 269 304 329 329 352 54 259 234 249 297 5 209 282 293 286 243 271 302 227 242 300 279 206 121 21 338 334 61 91 103 320 237 188 261 191 214 292 298 331 334 339
320 332 338 30 276 242 283 26 54 181 259 127 6 332 309 262 277 203 274 294 141 25 340 312 200 321 155 244 28 61 47 334 359 246 238 273 215 250 246 100 220 299 326 337 342
311 315 334 348 229 216 283 77 169 260 19 195 218 291 230 7 244 307 234 306 54 75 64 315 304 196 92 134 179 146 129 156 270 319 293 211 241 270 138 141 359 326 330 341 344
304 302 291 297 191 246 157 83 201 216 332 354 335 357 167 53 202 15 352 41 41 81 183 336 271 124 66 123 149 189 119 137 118 238 297 236 272 359 212 278 345 333 342 346 349
300 295 272 233 197 214 92 233 207 35 348 24 194 33 304 349 2 355 309 341 105 36 53 255 295 206 137 101 48 133 127 61 18 296 280 285 274 231 285 298 319 328 329 347 348
296 279 213 211 199 182 198 218 164 91 57 35 326 316 239 279 298 288 270 43 43 308 347 155 103 288 39 208 167 97 267 144 202 168 196 295 269 206 223 252 278 303 331 348 347
217 288 168 164 88 50 216 207 103 54 63 78 250 298 276 297 272 247 275 247 83 136 170 171 166 259 240 89 69 76 214 161 163 259 156 165 278 267 221 240 255 306 345 352 355
213 248 237 200 142 214 271 237 190 174 109 85 269 195 75 267 267 243 258 145 190 211 194 317 237 325 344 15 47 219 196 137 123 85 217 144 266 245 260 294 325 306 358 356 1
180 42 218 220 172 146 208 183 193 78 91 104 17 5 266 250 238 281 288 197 203 225 196 153 259 218 222 184 101 239 215 190 161 136 209 232 293 273 274 299 318 346 5 4 7
189 202 171 214 238 114 65 163 190 181 182 148 182 230 260 279 314 253 262 269 200 245 185 169 237 219 257 258 256 244 250 194 190 203 182 264 210 249 275 250 294 350 360 11 14
168 163 161 193 143 138 146 204 214 203 159 171 199 206 216 244 250 307 320 228 267 154 185 182 276 239 273 252 238 249 245 225 220 228 260 195 286 193 243 43 338 11 2 9 12
192 174 166 166 131 133 202 186 204 163 225 182 167 111 267 278 298 297 297 288 287 256 212 173 262 293 267 1 338 277 235 199 180 189 155 198 229 139 163 51 360 15 8 10 8